Satellite-Ground Cal/Val Region Overpasses Predictions

Prediction of Satellite NPP Overpassing Cal/Val Region: PacNW

Region Location: (Latitude: 10.00, Longitude: 139.50) to (Latitude: 22.70, Longitude: 165.60).

Table of predicted overpasses for the next 14.0 days since TLE Epoch: 7/18/2014
Interval Starting Time Starting Location Ending Time Ending Location
1 07/19/2014 02:46:43 ( 10.01, 159.80) 07/19/2014 02:50:19 ( 22.69, 156.77)
2 07/19/2014 15:18:37 ( 22.70, 157.07) 07/19/2014 15:22:13 ( 10.02, 154.04)
3 07/20/2014 02:27:44 ( 10.05, 164.55) 07/20/2014 02:31:19 ( 22.67, 161.53)
4 07/20/2014 14:59:38 ( 22.66, 161.82) 07/20/2014 15:03:13 ( 10.04, 158.80)
5 07/21/2014 03:50:13 ( 10.03, 143.93) 07/21/2014 03:53:48 ( 22.65, 140.92)
6 07/21/2014 14:41:45 ( 18.69, 165.60) 07/21/2014 14:44:13 ( 10.00, 163.55)
7 07/21/2014 16:22:07 ( 22.68, 141.21) 07/21/2014 16:24:06 ( 15.70, 139.50)
8 07/22/2014 03:31:13 ( 10.01, 148.70) 07/22/2014 03:34:49 ( 22.69, 145.66)
9 07/22/2014 16:03:07 ( 22.70, 145.97) 07/22/2014 16:06:43 ( 10.02, 142.94)
10 07/23/2014 03:12:13 ( 10.05, 153.44) 07/23/2014 03:15:48 ( 22.67, 150.43)
11 07/23/2014 15:44:07 ( 22.66, 150.72) 07/23/2014 15:47:42 ( 10.04, 147.70)
12 07/24/2014 02:53:13 ( 10.04, 158.20) 07/24/2014 02:56:48 ( 22.66, 155.19)
13 07/24/2014 15:25:07 ( 22.68, 155.48) 07/24/2014 15:28:43 ( 10.00, 152.45)
14 07/25/2014 02:34:13 ( 10.02, 162.97) 07/25/2014 02:37:49 ( 22.70, 159.93)
15 07/25/2014 15:06:06 ( 22.70, 160.24) 07/25/2014 15:09:42 ( 10.02, 157.21)
16 07/26/2014 02:17:46 ( 19.04, 165.60) 07/26/2014 02:18:48 ( 22.68, 164.70)
17 07/26/2014 03:56:43 ( 10.06, 142.34) 07/26/2014 04:00:05 ( 21.91, 139.51)
18 07/26/2014 14:47:07 ( 22.66, 164.99) 07/26/2014 14:50:42 ( 10.04, 161.97)
19 07/26/2014 16:28:37 ( 22.66, 139.61) 07/26/2014 16:28:44 ( 22.25, 139.51)
20 07/27/2014 03:37:43 ( 10.04, 147.10) 07/27/2014 03:41:18 ( 22.66, 144.08)
21 07/27/2014 16:09:36 ( 22.68, 144.38) 07/27/2014 16:13:12 ( 10.00, 141.34)
22 07/28/2014 03:18:42 ( 10.02, 151.86) 07/28/2014 03:22:18 ( 22.70, 148.83)
23
